Regional Weather Roundup
Issued by NWS Burlington, VT

Home | Current Version | Previous Version | Text Only | Print | Product List | Glossary On
Versions: 1 2 3 4 5 6 7 8 9 10 11 12 13 14 15 16 17 18 19 20 21 22 23 24 25 26 27 28 29 30 31 32 33 34 35 36 37 38 39 40 41 42 43 44 45 46 47 48 49 50
000
ASUS41 KBTV 220710
RWRBTV
VERMONT REGIONAL WEATHER ROUNDUP
NATIONAL WEATHER SERVICE BURLINGTON VT
300 AM EDT WED OCT 22 2014

NOTE: "FAIR" INDICATES FEW OR NO CLOUDS BELOW 12,000 FEET WITH NO
SIGNIFICANT WEATHER AND/OR OBSTRUCTIONS TO VISIBILITY.

* THESE REPORTS ARE NOT UNDER NWS QUALITY CONTROL AND/OR DO NOT
  REPORT WEATHER SUCH AS PRECIPITATION AND FOG.

VTZ001>019-220800-
_____VERMONT_____


CITY           SKY/WX    TMP DP  RH WIND       PRES   REMARKS
BURLINGTON     CLOUDY    47  44  90 N8        30.11R
MONTPELIER     CLOUDY    45  44  97 NW3       30.12S
MORRISVILLE    CLOUDY    46  44  93 N3        30.12S
ST. JOHNSBURY*   N/A     47  44  90 MISG      30.08S
LYNDONVILLE*   DRIZZLE   46  42  85 N5        30.11S
MIDDLEBURY*    CLOUDY    47  47 100 N6        30.07F
RUTLAND*       CLOUDY    46  45  93 N7        30.04S
SPRINGFIELD    CLOUDY    49  44  83 VRB6      30.05S
HIGHGATE*      DRIZZLE   44  43  98 N5        30.12S
NEWPORT*       CLOUDY    42  42  97 N13       30.13S
BENNINGTON     CLOUDY    51  45  79 NE7       30.00R
SUTTON*          N/A     43 N/A N/A MISG        N/A

_____LAKE CHAMPLAIN_____


CITY           SKY/WX    TMP DP  RH WIND       PRES   REMARKS
COLCHESTER RF*   N/A     46  45  93 N22         N/A
DIAMOND ISL*     N/A     46  45  93 NW17        N/A

$$

NYZ007-026>031-035-052-083-220800-
_____NORTHERN NEW YORK_____


CITY           SKY/WX    TMP DP  RH WIND       PRES   REMARKS
PLATTSBURGH    CLOUDY    44  42  93 N14       30.13R
SARANAC LAKE   FOG       41  40  96 NE9       30.07S VSB 1
MASSENA        CLOUDY    45  34  65 NE17      30.17R
OGDENSBURG*    CLOUDY    46  37  71 NE13      30.14S
POTSDAM*       CLOUDY    45  39  81 E7G17     30.14R
WATERTOWN      CLOUDY    45  37  73 NE15      30.10R
FT DRUM        CLOUDY    43  41  95 NE14      30.09R
ALBANY         CLOUDY    50  46  86 N8        30.02R
GLENS FALLS    CLOUDY    50  45  83 N9        30.04S

$$
NHZ002-005-011-220800-
_____NEW HAMPSHIRE_____


CITY           SKY/WX    TMP DP  RH WIND       PRES   REMARKS
LEBANON        CLOUDY    49  44  83 NE5       30.06S
KEENE          CLOUDY    52  41  66 N6        30.01F
MT WASHINGTON  FRZ RAIN  30  30 100 E38G47      N/A  VSB 0   WCI  14
PLYMOUTH       DRIZZLE   47  47 100 CALM      30.06S
WHITEFIELD     CLOUDY    46  42  86 N9        30.09S

$$

_____REGIONAL QUEBEC LOCATIONS_____


CITY           SKY/WX    TMP DP  RH WIND       PRES   REMARKS
MONTREAL       CLOUDY    45  36  70 NE20G28   30.17S
QUEBEC CITY    CLOUDY    45  30  57 NE16G28   30.28S
SHERBROOKE     LGT RAIN  41  41 100 NE8       30.16S

_____REGIONAL ONTARIO LOCATIONS_____


CITY           SKY/WX    TMP DP  RH WIND       PRES   REMARKS
OTTAWA         PTSUNNY   43  32  65 N12       30.18S

______KEY______
VSB  - VISIBILITY IN MILES
WCI  - WIND CHILL INDEX
HX   - HEAT INDEX
$$
NNNN



USA.gov is the U.S. government's official web portal to all federal, state and local government web resources and services.